Location: Unspecified
(54.1780°N, 0.0000°E)
Time: 06:36:13
(UTC+00:00)

Altair - Pass Details

Date: 26 June 2019
Orbit: 1501 x 1683 km, 47.2° (Epoch: 14 July)

Event Time Altitude Azimuth Distance (km) Brightness Sun altitude
Rises 18:50:04 0° 222° (SW) 4,679 10.3 12.2°
Reaches altitude 10° 18:53:18 10° 215° (SW) 3,720 9.7 11.8°
Maximum altitude 19:01:48 40° 150° (SSE) 2,191 8.1 10.6°
Drops below altitude 10° 19:10:38 10° 86° (E) 3,860 9.1 9.5°
Sets 19:14:02 0° 80° (E) 4,872 9.7 9.0°
